TITAN 3C TRANSTAGE DEB, 26530

Orbit data source: Space-Track

TITAN 3C TRANSTAGE DEB, 26530 is space debris in HEO originally from a launch on Tue, 21 Dec 1965 UTC launched from the Air Force Eastern Test Range (AFETR). Debris objects in space refer to the collection of defunct objects orbiting the Earth. Examples of debris include non-operational satellites, rocket bodies, and fragments generated from explosions, collisions, or faulty payload assembly.

Loading next visibility...
Identifier
26530, 1965-108AR
Orbit
HEO
Country
Flag of USUS
Related business
Manufacturer
Unknown
Mission
Spacecraft
Bus & Motor
Unknown
Mass
Unknown
Launch date (UTC)
1965-12-21 (60 years ago)
Launch vehicle
Unknown
Launch site
Air Force Eastern Test Range (AFETR)
Object type
Payload
Rocket body
Debris
Shape & HBR
Unknown shape, 0.3 m
Radar Cross Section
Medium (>0.1 m² and <1 m²)

Expand to show TLE details & history
Last TLE update: 6 days ago

TLE from 6 days ago
0 TITAN 3C TRANSTAGE DEB
1 26530U 65108AR  26128.26967376  .00001168  00000-0  31356-2 0  9997
2 26530  26.9283 118.5694 6769798 296.6054  10.7188  2.83102710275458
Epoch: 2026-05-08T06:28Z
TLE epoch observation values (Epoch: 2026-05-08T06:28:19.812Z)
Latitude
-0.00003°
Longitude
155.38168°
Altitude
2,386.762 km
Speed
8.489 km/s
True Right ascension
07h 54m 16s
True Declination
0° 00' 00"
Sunlit
Object was in daylight at epoch
Visualization orbit readout
Latitude
Unknown
Longitude
Unknown
Altitude
Unknown
Speed
Unknown
Apparent Right ascension
Unknown
Apparent Declination
Unknown
Sunlit
N/A
Visualization observer readout
Local Sidereal Time
04:49:39
Azimuth
Unknown
Elevation
Unknown
Doppler factor
Unknown
Orbital elements
Apogee altitude
29,025.005 km
Perigee altitude
441.224 km
Semi-major axis
21,111.251 km
Eccentricity
0.67698
Inclination
26.9283°
RAAN
118.5694°
Arg. of periapsis
296.6054°
True anomaly
63.29333°
Mean anomaly
10.7188°
Eccentric anomaly
30.27222°
Mean motion
0.70757 °/min
Orbital period
508.78 mins
BSTAR
0.0031356
Loading maneuver chart data...
Computing Atmospheric mass density...

Documentation

Showing up to 5 results
|